Location: Marcé
(47.5801°N, 0.3280°W)
Time: 18:39:35
(UTC+01:00)

Tiros 1 - Pass Details

Date: 04 December 2021
Orbit: 629 x 664 km, 48.4° (Epoch: 26 January)

Event Time Altitude Azimuth Distance (km) Brightness Sun altitude
Rises 00:25:49 0° 285° (WNW) 2,954 - -64.1°
Reaches altitude 10° 00:28:10 10° 282° (WNW) 2,048 - -64.2°
Maximum altitude 00:32:50 61° 203° (SSW) 740 - -64.4°
Drops below altitude 10° 00:37:31 10° 124° (ESE) 2,063 - -64.5°
Sets 00:39:53 0° 120° (ESE) 2,977 - -64.5°
